Location: Goll?ig?dem
(16.6773°N, 80.7332°E)
Time: 00:36:44
(UTC+00:00)

Helios 1A Rocket - Pass Details

Date: 19 May 2025
Orbit: 466 x 480 km, 98.3° (Epoch: 18 June)

Event Time Altitude Azimuth Distance (km) Brightness Sun altitude
Exits shadow 23:30:42 10° 233° (SW) 1,601 4.6 -8.4°
Maximum altitude 23:32:20 13° 261° (W) 1,431 4.3 -8.0°
Drops below altitude 10° 23:34:04 10° 291° (WNW) 1,621 4.8 -7.7°
Sets 23:37:01 0° 320° (NW) 2,502 6.0 -7.0°
